Zanzibar, Tanzania

10:08 AM EAT on December 17, 2017 (GMT +0300)
Zanzibar

Weather History for HTZA - December, 2012

Change the Weather History Date:

Thursday, December 13, 2012

  Actual Average Record
Temperature  
Mean Temperature 84 °F -  
Max Temperature 91 °F 84 °F 92 °F (2015)
Min Temperature 78 °F 77 °F 73 °F (2017)
Cooling Degree Days 20    
Growing Degree Days 34 (Base 50)    
Moisture  
Dew Point 76 °F    
Average Humidity 76    
Maximum Humidity 94    
Minimum Humidity 51    
Precipitation  
Precipitation 0.00 in 0.19 in - ()
Sea Level Pressure  
Sea Level Pressure 29.79 in    
Wind  
Wind Speed 8 mph ()    
Max Wind Speed 23 mph    
Max Gust Speed -    
Visibility 9.8 miles    
Events Rain    
Averages and records for this station are not official NWS values.
T = Trace of Precipitation, MM = Missing Value Source: Averaged Metar Reports

Daily Weather History Graph

Daily Weather History Graph

Search for Another Location

Airport or City:

Trip Planner

Search our weather history database for the weather conditions in past years. The results will help you decide how hot, cold, wet, or windy it might be!

Date:

Astronomy

Dec. 13, 2012 Rise Set
Actual Time 6:03 AM EAT 6:31 PM EAT
Civil Twilight 5:40 AM EAT 6:54 PM EAT
Nautical Twilight 5:13 AM EAT 7:21 PM EAT
Astronomical Twilight 4:46 AM EAT 7:48 PM EAT
Moon 5:54 AM EAT (12/13) 6:44 PM EAT (12/13)
Length of Visible Light 13h 14m
Length of Day
12h 28m
New Moon, 0% of the Moon is Illuminated
Dec 13
New Moon
Dec 20
First Quarter
Dec 28
Full
Jan 5
Last Quarter
Jan 11
New

Hourly Weather History & Observations

Time (EAT) Temp. Heat Index Dew Point Humidity Pressure Visibility Wind Dir Wind Speed Gust Speed Precip Events Conditions
12:00 AM 81 °F - 78 °F 86% 29.84 in 19 mi Calm Calm - -   Scattered Clouds
3:00 AM 79 °F - 76 °F 89% 29.80 in 19 mi Calm Calm - -   Scattered Clouds
4:00 AM 78.8 °F - 75.2 °F 89% 29.80 in 6.2 mi Calm Calm - N/A   Partly Cloudy
5:00 AM 77.0 °F - 75.2 °F 94% 29.80 in 6.2 mi Calm Calm - N/A   Partly Cloudy
6:00 AM 79 °F - 76 °F 88% 29.82 in 19 mi Calm Calm - -   Scattered Clouds
6:00 AM 78.8 °F - 77.0 °F 94% 29.80 in 6.2 mi Calm Calm - N/A   Partly Cloudy
7:00 AM 80.6 °F 88.1 °F 78.8 °F 94% 29.83 in 6.2 mi NNE 23.0 mph - N/A   Partly Cloudy
8:00 AM 82.4 °F 92.4 °F 78.8 °F 89% 29.83 in 6.2 mi NNE 11.5 mph - N/A   Scattered Clouds
9:00 AM 86 °F - 76 °F 65% 29.85 in 16 mi North 20.7 mph - -   Mostly Cloudy
9:00 AM 86.0 °F 95.1 °F 75.2 °F 70% 29.83 in 6.2 mi North 20.7 mph - N/A   Partly Cloudy
11:00 AM 87.8 °F 99.7 °F 77.0 °F 70% 29.83 in 6.2 mi North 16.1 mph - N/A   Partly Cloudy
12:00 PM 89 °F - 77 °F 60% 29.81 in 19 mi NNE 16.1 mph - -   Mostly Cloudy
12:00 PM 89.6 °F 102.2 °F 77.0 °F 66% 29.80 in 6.2 mi NNE 16.1 mph - N/A   Mostly Cloudy
1:00 PM 89.6 °F 99.8 °F 75.2 °F 62% 29.77 in 6.2 mi NNE 16.1 mph - N/A   Mostly Cloudy
2:00 PM 91.4 °F 102.5 °F 75.2 °F 59% 29.74 in 6.2 mi NNE 20.7 mph - N/A   Scattered Clouds
3:00 PM 91 °F - 75 °F 51% 29.72 in 19 mi ENE 16.1 mph - -   Scattered Clouds
3:00 PM 91.4 °F 102.5 °F 75.2 °F 59% 29.71 in 6.2 mi ENE 16.1 mph - N/A   Partly Cloudy
4:00 PM 89.6 °F 102.2 °F 77.0 °F 66% 29.71 in 6.2 mi ESE 15.0 mph - N/A   Scattered Clouds
5:00 PM 86.0 °F 96.9 °F 77.0 °F 74% 29.74 in 6.2 mi ENE 11.5 mph - N/A   Scattered Clouds
6:00 PM 79 °F - 74 °F 79% 29.80 in 9 mi South 18.4 mph - - Rain Light Rain
6:00 PM 78.8 °F - 73.4 °F 83% 29.80 in 6.2 mi South 18.4 mph - N/A Rain Light Rain